GPS BIIF-6

Last updated on Fri Oct 24 2025 00:02:34 GMT+0000 (Coordinated Universal Time)

1 39741U 14026A 25296.13684326 -.00000084 00000+0 00000+0 0 9995 2 39741 56.6017 340.7459 0037369 316.9322 42.8395 2.00565093 83784
UTC large
Height (km)
Speed (km/s)
/
Latitude / Longitude
Inclination (degrees)
Orbital Period (minutes)
Azimuth
Elevation
Range (km)
Doppler Factor

Next 0 passes for location: London (51.5072 / 0.1276)

Sorry there are no passes over London.